TAS84 CYYJ-CYYJ

Flight info

Callsign TAS84
Flight time 0h 59m
Altitude 2500
Route CYYJ CBK8 CYVR CYYJ
Aircraft H60/M-VGDW/C

Departure

Time 2026-04-27 04:38
Airport Victoria International Airport (CYYJ)

Arrival

Time 2026-04-27 05:37
Airport Victoria International Airport (CYYJ)
Time Latitude Longitude Altitude Speed Heading
2026-04-27 04:23 48.64485 -123.43492 57 ft 0 kts 224°
2026-04-27 04:36 48.64485 -123.43493 57 ft 0 kts 231°
2026-04-27 04:36 48.64473 -123.43514 57 ft 3 kts 230°
2026-04-27 04:37 48.64468 -123.43522 57 ft 2 kts 229°
2026-04-27 04:37 48.64460 -123.43517 158 ft 5 kts 275°
2026-04-27 04:37 48.64474 -123.43956 343 ft 76 kts 275°
2026-04-27 04:37 48.64172 -123.44707 647 ft 100 kts 207°
2026-04-27 04:38 48.63646 -123.44214 826 ft 113 kts 110°
2026-04-27 04:38 48.63564 -123.43007 1116 ft 112 kts 100°
2026-04-27 04:38 48.63305 -123.41874 1549 ft 129 kts 114°
2026-04-27 04:38 48.62745 -123.40614 1502 ft 143 kts 129°
2026-04-27 04:39 48.62108 -123.39549 1493 ft 133 kts 136°
2026-04-27 04:39 48.61444 -123.38457 1486 ft 146 kts 136°
2026-04-27 04:39 48.60757 -123.37321 1496 ft 144 kts 136°
2026-04-27 04:39 48.60041 -123.36249 1487 ft 148 kts 142°
2026-04-27 04:40 48.59163 -123.35411 1497 ft 148 kts 156°
2026-04-27 04:40 48.58190 -123.34876 1499 ft 145 kts 164°
2026-04-27 04:40 48.57245 -123.34359 1501 ft 145 kts 164°
2026-04-27 04:40 48.56297 -123.33838 1497 ft 145 kts 164°
2026-04-27 04:41 48.55329 -123.33306 1506 ft 147 kts 164°
2026-04-27 04:41 48.54432 -123.32816 1717 ft 126 kts 164°
2026-04-27 04:41 48.53605 -123.32564 2027 ft 126 kts 178°
2026-04-27 04:41 48.52678 -123.32615 1996 ft 140 kts 185°
2026-04-27 04:42 48.51683 -123.32639 1999 ft 138 kts 185°
2026-04-27 04:42 48.50746 -123.32659 2002 ft 135 kts 185°
2026-04-27 04:42 48.49818 -123.32683 2002 ft 133 kts 185°
2026-04-27 04:42 48.48865 -123.32817 1823 ft 140 kts 190°
2026-04-27 04:43 48.47876 -123.32979 1498 ft 144 kts 190°
2026-04-27 04:43 48.46896 -123.33134 1275 ft 140 kts 190°
2026-04-27 04:43 48.45944 -123.33282 1160 ft 130 kts 190°
2026-04-27 04:43 48.45180 -123.33381 1049 ft 94 kts 194°
2026-04-27 04:44 48.44566 -123.33380 909 ft 81 kts 157°
2026-04-27 04:44 48.44108 -123.33089 725 ft 67 kts 139°
2026-04-27 04:44 48.43746 -123.32699 490 ft 57 kts 136°
2026-04-27 04:44 48.43502 -123.32520 189 ft 17 kts 166°
2026-04-27 04:45 48.43445 -123.32514 115 ft 8 kts 186°
2026-04-27 04:45 48.43429 -123.32516 71 ft 0 kts 186°
2026-04-27 04:52 48.43426 -123.32522 80 ft 3 kts 333°
2026-04-27 04:53 48.43425 -123.32516 163 ft 2 kts 354°
2026-04-27 04:53 48.43754 -123.32824 420 ft 93 kts 332°
2026-04-27 04:53 48.44455 -123.33296 917 ft 123 kts 345°
2026-04-27 04:53 48.45331 -123.33340 1404 ft 135 kts
2026-04-27 04:54 48.46318 -123.33308 1507 ft 142 kts
2026-04-27 04:54 48.47301 -123.33149 1483 ft 141 kts
2026-04-27 04:54 48.48285 -123.32970 1491 ft 141 kts
2026-04-27 04:54 48.49263 -123.32791 1485 ft 143 kts
2026-04-27 04:55 48.50259 -123.32611 1480 ft 142 kts
2026-04-27 04:55 48.51230 -123.32366 1484 ft 142 kts 11°
2026-04-27 04:55 48.52197 -123.32057 1482 ft 142 kts 10°
2026-04-27 04:55 48.53154 -123.31761 1486 ft 142 kts 10°
2026-04-27 04:56 48.54164 -123.31456 1456 ft 150 kts 10°
2026-04-27 04:56 48.55177 -123.31152 1454 ft 147 kts 10°
2026-04-27 04:56 48.56176 -123.30850 1458 ft 146 kts 10°
2026-04-27 04:56 48.57174 -123.30552 1460 ft 145 kts 10°
2026-04-27 04:57 48.58162 -123.30259 1459 ft 145 kts 10°
2026-04-27 04:57 48.59152 -123.29966 1462 ft 145 kts 10°
2026-04-27 04:57 48.60145 -123.29675 1463 ft 145 kts 10°
2026-04-27 04:57 48.61135 -123.29384 1466 ft 145 kts 10°
2026-04-27 04:58 48.62120 -123.29098 1464 ft 144 kts 10°
2026-04-27 04:58 48.63106 -123.28812 1467 ft 144 kts 10°
2026-04-27 04:58 48.64093 -123.28525 1465 ft 144 kts 10°
2026-04-27 04:58 48.65083 -123.28241 1463 ft 145 kts 10°
2026-04-27 04:59 48.66074 -123.27957 1466 ft 145 kts 10°
2026-04-27 04:59 48.67067 -123.27672 1466 ft 145 kts 10°
2026-04-27 04:59 48.68085 -123.27381 1462 ft 145 kts 10°
2026-04-27 04:59 48.69083 -123.27097 1469 ft 143 kts 10°
2026-04-27 05:00 48.70068 -123.26817 1463 ft 145 kts 10°
2026-04-27 05:00 48.70735 -123.26627 1463 ft 144 kts 10°
2026-04-27 05:00 48.71721 -123.26347 1459 ft 144 kts 10°
2026-04-27 05:00 48.72705 -123.26068 1464 ft 144 kts 10°
2026-04-27 05:01 48.73693 -123.25787 1460 ft 145 kts 10°
2026-04-27 05:01 48.74690 -123.25502 1463 ft 146 kts 10°
2026-04-27 05:01 48.75695 -123.25213 1464 ft 145 kts 10°
2026-04-27 05:01 48.76687 -123.24930 1465 ft 145 kts 10°
2026-04-27 05:02 48.77681 -123.24646 1464 ft 145 kts 10°
2026-04-27 05:02 48.78685 -123.24356 1463 ft 145 kts 10°
2026-04-27 05:02 48.80660 -123.23789 1461 ft 144 kts 10°
2026-04-27 05:03 48.81652 -123.23506 1460 ft 144 kts 11°
2026-04-27 05:03 48.82651 -123.23216 1459 ft 144 kts 10°
2026-04-27 05:03 48.83694 -123.22913 1459 ft 145 kts 11°
2026-04-27 05:03 48.84664 -123.22642 1378 ft 154 kts
2026-04-27 05:04 48.85789 -123.22586 1110 ft 160 kts
2026-04-27 05:04 48.86914 -123.22565 850 ft 163 kts
2026-04-27 05:04 48.88066 -123.22555 637 ft 165 kts
2026-04-27 05:04 48.89241 -123.22549 470 ft 166 kts
2026-04-27 05:05 48.90395 -123.22550 313 ft 167 kts
2026-04-27 05:05 48.91583 -123.22560 299 ft 165 kts
2026-04-27 05:05 48.92756 -123.22567 299 ft 168 kts
2026-04-27 05:05 48.93979 -123.22574 299 ft 168 kts
2026-04-27 05:06 48.95232 -123.22586 301 ft 168 kts
2026-04-27 05:06 48.96383 -123.22601 301 ft 167 kts
2026-04-27 05:06 48.97544 -123.22617 301 ft 167 kts
2026-04-27 05:06 48.98347 -123.22631 303 ft 166 kts
2026-04-27 05:07 48.98980 -123.22646 303 ft 166 kts
2026-04-27 05:07 48.99763 -123.22665 303 ft 167 kts
2026-04-27 05:07 49.00930 -123.22695 306 ft 166 kts
2026-04-27 05:07 49.02070 -123.22721 305 ft 166 kts
2026-04-27 05:08 49.03230 -123.22752 307 ft 160 kts
2026-04-27 05:08 49.04380 -123.22783 308 ft 164 kts
2026-04-27 05:08 49.05527 -123.22814 310 ft 165 kts
2026-04-27 05:08 49.06674 -123.22845 308 ft 165 kts
2026-04-27 05:09 49.07837 -123.22877 307 ft 164 kts
2026-04-27 05:09 49.08963 -123.22907 310 ft 164 kts
2026-04-27 05:09 49.10130 -123.22934 310 ft 164 kts
2026-04-27 05:09 49.11274 -123.22963 310 ft 164 kts
2026-04-27 05:10 49.12423 -123.22995 308 ft 168 kts
2026-04-27 05:10 49.13580 -123.23029 309 ft 163 kts
2026-04-27 05:10 49.14716 -123.23060 310 ft 164 kts
2026-04-27 05:10 49.15869 -123.23089 310 ft 164 kts
2026-04-27 05:11 49.16964 -123.22744 387 ft 152 kts 23°
2026-04-27 05:11 49.17665 -123.21759 477 ft 127 kts 56°
2026-04-27 05:11 49.18027 -123.20614 515 ft 107 kts 64°
2026-04-27 05:11 49.18278 -123.19644 472 ft 91 kts 75°
2026-04-27 05:12 49.18420 -123.18746 417 ft 84 kts 79°
2026-04-27 05:12 49.18427 -123.17893 318 ft 74 kts 95°
2026-04-27 05:12 49.18308 -123.17172 174 ft 60 kts 98°
2026-04-27 05:12 49.18236 -123.16772 47 ft 24 kts 116°
2026-04-27 05:13 49.18196 -123.16670 14 ft 6 kts 136°
2026-04-27 05:13 49.18161 -123.16663 12 ft 4 kts 179°
2026-04-27 05:13 49.18157 -123.16663 12 ft 0 kts 178°
2026-04-27 05:14 49.18153 -123.16663 12 ft 0 kts 179°
2026-04-27 05:21 49.18150 -123.16659 12 ft 2 kts 75°
2026-04-27 05:21 49.18170 -123.16649 15 ft 5 kts
2026-04-27 05:22 49.18186 -123.16653 13 ft 2 kts 313°
2026-04-27 05:22 49.18211 -123.16693 26 ft 9 kts 312°
2026-04-27 05:22 49.18354 -123.17117 218 ft 87 kts 294°
2026-04-27 05:22 49.18511 -123.18322 500 ft 135 kts 270°
2026-04-27 05:23 49.18354 -123.19859 566 ft 155 kts 249°
2026-04-27 05:23 49.17901 -123.21403 565 ft 158 kts 238°
2026-04-27 05:23 49.17465 -123.22828 528 ft 150 kts 236°
2026-04-27 05:23 49.16758 -123.24128 514 ft 168 kts 220°
2026-04-27 05:24 49.15810 -123.25133 537 ft 157 kts 215°
2026-04-27 05:24 49.14808 -123.25732 537 ft 154 kts 194°
2026-04-27 05:24 49.13780 -123.26009 648 ft 138 kts 190°
2026-04-27 05:24 49.12876 -123.26262 990 ft 128 kts 190°
2026-04-27 05:25 49.12013 -123.26473 1392 ft 125 kts 190°
2026-04-27 05:25 49.11057 -123.26686 1477 ft 152 kts 190°
2026-04-27 05:25 49.10006 -123.26916 1488 ft 153 kts 190°
2026-04-27 05:25 49.08957 -123.27142 1489 ft 152 kts 190°
2026-04-27 05:26 49.07907 -123.27368 1487 ft 152 kts 190°
2026-04-27 05:26 49.06841 -123.27597 1489 ft 152 kts 190°
2026-04-27 05:26 49.05796 -123.27819 1486 ft 153 kts 190°
2026-04-27 05:26 49.04746 -123.28038 1489 ft 152 kts 190°
2026-04-27 05:27 49.03694 -123.28259 1485 ft 153 kts 190°
2026-04-27 05:27 49.02628 -123.28479 1492 ft 152 kts 190°
2026-04-27 05:27 49.01579 -123.28696 1487 ft 152 kts 190°
2026-04-27 05:27 49.00541 -123.28917 1487 ft 152 kts 190°
2026-04-27 05:28 48.99488 -123.29139 1485 ft 152 kts 190°
2026-04-27 05:28 48.98416 -123.29359 1486 ft 151 kts 190°
2026-04-27 05:28 48.97375 -123.29574 1484 ft 151 kts 190°
2026-04-27 05:28 48.96348 -123.29924 1489 ft 151 kts 195°
2026-04-27 05:29 48.95315 -123.30293 1488 ft 151 kts 195°
2026-04-27 05:29 48.94281 -123.30659 1486 ft 152 kts 195°
2026-04-27 05:29 48.93249 -123.31024 1485 ft 151 kts 195°
2026-04-27 05:29 48.92224 -123.31383 1484 ft 151 kts 195°
2026-04-27 05:30 48.91529 -123.31626 1484 ft 151 kts 195°
2026-04-27 05:30 48.90157 -123.32109 1484 ft 151 kts 195°
2026-04-27 05:30 48.89460 -123.32354 1483 ft 152 kts 195°
2026-04-27 05:30 48.88434 -123.32714 1486 ft 152 kts 195°
2026-04-27 05:31 48.87388 -123.33079 1485 ft 152 kts 195°
2026-04-27 05:31 48.86356 -123.33440 1488 ft 152 kts 195°
2026-04-27 05:31 48.85329 -123.33800 1483 ft 152 kts 195°
2026-04-27 05:31 48.84303 -123.34157 1490 ft 151 kts 195°
2026-04-27 05:32 48.83280 -123.34511 1486 ft 151 kts 195°
2026-04-27 05:32 48.82256 -123.34868 1491 ft 152 kts 195°
2026-04-27 05:32 48.81212 -123.35231 1488 ft 151 kts 195°
2026-04-27 05:32 48.80186 -123.35582 1494 ft 150 kts 195°
2026-04-27 05:33 48.79169 -123.35933 1501 ft 149 kts 195°
2026-04-27 05:33 48.78135 -123.36291 1484 ft 150 kts 195°
2026-04-27 05:33 48.77101 -123.36645 1493 ft 151 kts 195°
2026-04-27 05:33 48.76078 -123.36992 1491 ft 151 kts 195°
2026-04-27 05:34 48.75055 -123.37341 1493 ft 151 kts 195°
2026-04-27 05:34 48.74016 -123.37693 1493 ft 151 kts 195°
2026-04-27 05:34 48.72998 -123.38069 1493 ft 150 kts 198°
2026-04-27 05:34 48.72026 -123.38708 1493 ft 150 kts 206°
2026-04-27 05:35 48.71065 -123.39333 1496 ft 150 kts 206°
2026-04-27 05:35 48.70105 -123.39951 1499 ft 149 kts 206°
2026-04-27 05:35 48.69142 -123.40574 1484 ft 147 kts 206°
2026-04-27 05:35 48.68172 -123.41224 1284 ft 156 kts 206°
2026-04-27 05:36 48.67152 -123.41912 897 ft 158 kts 206°
2026-04-27 05:36 48.66164 -123.42423 909 ft 141 kts 197°
2026-04-27 05:36 48.65344 -123.42711 614 ft 96 kts 193°
2026-04-27 05:36 48.64816 -123.42876 357 ft 65 kts 193°
2026-04-27 05:37 48.64504 -123.43241 238 ft 50 kts 223°
2026-04-27 05:37 48.64447 -123.43510 62 ft 2 kts 269°